When you browse on this site, cookies collect data to enhance your experience and personalize the content and advertising you see.
Visit our Privacy Policy to learn more. By continuing to use the site, you agree to this use of cookies and data.
  • In Belgium
  • List of Countries
  • For 7 days
  • Water Temperature
  • Weather Map
  • Weather Widgets
  • user-avatar
    Login

    Hourly Weather Polotsk

    Today, 25 May, Monday

    Time Temperature Precipitation Wind Pressure Humidity
    00:00 +9°C° 0 mm 1 mps 749 mmHg 90%
    01:00 +9°C° 0 mm 1 mps 749 mmHg 91%
    02:00 +9°C° 0 mm 1 mps 749 mmHg 93%
    03:00 +9°C° 0 mm 1 mps 749 mmHg 93%
    04:00 +9°C° 0 mm 1 mps 750 mmHg 92%
    05:00 +8°C° 0 mm 0 mps 750 mmHg 92%
    06:00 +9°C° 0 mm 0 mps 750 mmHg 88%
    07:00 +11°C° 0 mm 1 mps 751 mmHg 84%
    08:00 +12°C° 0 mm 1 mps 751 mmHg 82%
    09:00 +13°C° 0.2 mm 1 mps 751 mmHg 78%
    10:00 +14°C° 0.2 mm 1 mps 751 mmHg 73%
    11:00 +15°C° 0.2 mm 2 mps 751 mmHg 69%
    12:00 +16°C° 0.4 mm 2 mps 751 mmHg 67%
    13:00 +16°C° 0.4 mm 2 mps 751 mmHg 65%
    14:00 +18°C° 0.4 mm 1 mps 752 mmHg 63%
    15:00 +17°C° 0.7 mm 2 mps 752 mmHg 66%
    16:00 +16°C° 0.7 mm 2 mps 752 mmHg 69%
    17:00 +16°C° 0.7 mm 2 mps 752 mmHg 72%
    18:00 +15°C° 0.2 mm 2 mps 752 mmHg 77%
    19:00 +14°C° 0.2 mm 2 mps 752 mmHg 82%
    20:00 +12°C° 0.2 mm 2 mps 753 mmHg 87%
    21:00 +11°C° 0 mm 1 mps 753 mmHg 88%
    22:00 +11°C° 0 mm 1 mps 754 mmHg 89%
    23:00 +10°C° 0 mm 1 mps 754 mmHg 90%

    Tomorrow, 26 May, Tuesday

    Time Temperature Precipitation Wind Pressure Humidity
    00:00 +9°C° 0 mm 1 mps 754 mmHg 90%
    01:00 +9°C° 0 mm 1 mps 754 mmHg 91%
    02:00 +9°C° 0 mm 1 mps 755 mmHg 91%
    03:00 +9°C° 0 mm 1 mps 755 mmHg 92%
    04:00 +9°C° 0 mm 1 mps 755 mmHg 92%
    05:00 +9°C° 0 mm 1 mps 755 mmHg 92%
    06:00 +10°C° 0 mm 2 mps 756 mmHg 86%
    07:00 +13°C° 0 mm 2 mps 756 mmHg 80%
    08:00 +15°C° 0 mm 2 mps 756 mmHg 74%
    09:00 +16°C° 0 mm 2 mps 756 mmHg 66%
    10:00 +18°C° 0 mm 2 mps 757 mmHg 57%
    11:00 +19°C° 0 mm 2 mps 757 mmHg 48%
    12:00 +20°C° 0 mm 3 mps 756 mmHg 48%
    13:00 +20°C° 0 mm 3 mps 756 mmHg 48%
    14:00 +20°C° 0 mm 3 mps 756 mmHg 48%
    15:00 +20°C° 0 mm 3 mps 756 mmHg 49%
    16:00 +20°C° 0 mm 3 mps 756 mmHg 50%
    17:00 +20°C° 0 mm 3 mps 756 mmHg 52%
    18:00 +18°C° 0 mm 2 mps 756 mmHg 59%
    19:00 +16°C° 0 mm 2 mps 756 mmHg 67%
    20:00 +14°C° 0 mm 2 mps 756 mmHg 75%
    21:00 +13°C° 0 mm 2 mps 756 mmHg 78%
    22:00 +12°C° 0 mm 2 mps 756 mmHg 81%
    23:00 +10°C° 0 mm 2 mps 756 mmHg 83%

    Day after tomorrow, 27 May, Wednesday

    Time Temperature Precipitation Wind Pressure Humidity
    00:00 +12°C° 0 mm 2 mps 755 mmHg 83%
    01:00 +12°C° 0 mm 2 mps 755 mmHg 82%
    02:00 +12°C° 0 mm 2 mps 755 mmHg 81%
    03:00 +12°C° 0 mm 2 mps 755 mmHg 79%
    04:00 +12°C° 0 mm 2 mps 755 mmHg 77%
    05:00 +12°C° 0 mm 2 mps 755 mmHg 76%
    06:00 +13°C° 0 mm 2 mps 755 mmHg 72%
    07:00 +14°C° 0 mm 1 mps 755 mmHg 69%
    08:00 +15°C° 0 mm 1 mps 755 mmHg 65%
    09:00 +16°C° 0 mm 2 mps 754 mmHg 59%
    10:00 +17°C° 0 mm 2 mps 754 mmHg 52%
    11:00 +18°C° 0 mm 2 mps 754 mmHg 46%
    12:00 +18°C° 0 mm 2 mps 753 mmHg 48%
    13:00 +18°C° 0 mm 2 mps 753 mmHg 49%
    14:00 +18°C° 0 mm 2 mps 753 mmHg 51%
    15:00 +17°C° 0.1 mm 2 mps 752 mmHg 57%
    16:00 +16°C° 0.1 mm 3 mps 752 mmHg 62%
    17:00 +14°C° 0.1 mm 3 mps 752 mmHg 68%
    18:00 +15°C° 0 mm 2 mps 751 mmHg 70%
    19:00 +14°C° 0 mm 2 mps 751 mmHg 72%
    20:00 +13°C° 0 mm 1 mps 751 mmHg 75%
    21:00 +12°C° 0 mm 1 mps 751 mmHg 77%
    22:00 +10°C° 0 mm 0 mps 751 mmHg 80%
    23:00 +9°C° 0 mm 0 mps 751 mmHg 83%

    28 May, Thursday

    Time Temperature Precipitation Wind Pressure Humidity
    00:00 +9°C° 0 mm 0 mps 750 mmHg 82%
    01:00 +10°C° 0 mm 1 mps 750 mmHg 81%
    02:00 +10°C° 0 mm 1 mps 750 mmHg 81%
    03:00 +10°C° 0 mm 1 mps 750 mmHg 82%
    04:00 +10°C° 0 mm 1 mps 750 mmHg 83%
    05:00 +10°C° 0 mm 1 mps 749 mmHg 84%
    06:00 +12°C° 0.1 mm 1 mps 749 mmHg 78%
    07:00 +14°C° 0.1 mm 1 mps 749 mmHg 72%
    08:00 +16°C° 0.1 mm 1 mps 750 mmHg 65%
    09:00 +18°C° 0.5 mm 1 mps 749 mmHg 62%
    10:00 +19°C° 0.5 mm 1 mps 749 mmHg 59%
    11:00 +20°C° 0.5 mm 1 mps 749 mmHg 56%
    12:00 +20°C° 0.4 mm 1 mps 748 mmHg 54%
    13:00 +21°C° 0.4 mm 1 mps 748 mmHg 53%
    14:00 +22°C° 0.4 mm 1 mps 748 mmHg 51%
    15:00 +21°C° 0.7 mm 1 mps 747 mmHg 57%
    16:00 +20°C° 0.7 mm 1 mps 747 mmHg 63%
    17:00 +19°C° 0.7 mm 1 mps 747 mmHg 69%
    18:00 +17°C° 0.4 mm 2 mps 747 mmHg 74%
    19:00 +15°C° 0.4 mm 2 mps 747 mmHg 79%
    20:00 +14°C° 0.4 mm 2 mps 746 mmHg 84%
    21:00 +13°C° 0 mm 2 mps 746 mmHg 86%
    22:00 +12°C° 0 mm 2 mps 746 mmHg 88%
    23:00 +10°C° 0 mm 2 mps 746 mmHg 89%

    29 May, Friday

    Time Temperature Precipitation Wind Pressure Humidity
    00:00 +10°C° 0 mm 2 mps 746 mmHg 90%
    01:00 +9°C° 0 mm 2 mps 745 mmHg 91%
    02:00 +9°C° 0 mm 2 mps 745 mmHg 91%
    03:00 +9°C° 0 mm 2 mps 745 mmHg 91%
    04:00 +9°C° 0 mm 2 mps 745 mmHg 91%
    05:00 +9°C° 0 mm 2 mps 745 mmHg 91%
    06:00 +12°C° 0 mm 2 mps 745 mmHg 86%
    07:00 +13°C° 0 mm 3 mps 745 mmHg 81%
    08:00 +14°C° 0 mm 3 mps 745 mmHg 77%
    09:00 +16°C° 0.2 mm 3 mps 744 mmHg 72%
    10:00 +17°C° 0.2 mm 3 mps 744 mmHg 68%
    11:00 +19°C° 0.2 mm 4 mps 744 mmHg 64%
    12:00 +18°C° 0.8 mm 3 mps 744 mmHg 69%
    13:00 +18°C° 0.8 mm 2 mps 744 mmHg 73%
    14:00 +17°C° 0.8 mm 2 mps 744 mmHg 78%
    15:00 +17°C° 0.4 mm 2 mps 744 mmHg 81%
    16:00 +16°C° 0.4 mm 2 mps 744 mmHg 84%
    17:00 +15°C° 0.4 mm 2 mps 744 mmHg 86%
    18:00 +15°C° 0 mm 2 mps 744 mmHg 89%
    19:00 +14°C° 0 mm 2 mps 744 mmHg 91%
    20:00 +14°C° 0 mm 1 mps 745 mmHg 94%
    21:00 +13°C° 0 mm 1 mps 745 mmHg 95%
    22:00 +12°C° 0 mm 1 mps 745 mmHg 96%
    23:00 +11°C° 0 mm 1 mps 745 mmHg 97%

    30 May, Saturday

    Time Temperature Precipitation Wind Pressure Humidity
    00:00 +11°C° 0 mm 1 mps 745 mmHg 97%
    01:00 +10°C° 0 mm 1 mps 745 mmHg 97%
    02:00 +10°C° 0 mm 1 mps 746 mmHg 97%
    03:00 +10°C° 0 mm 1 mps 746 mmHg 97%
    04:00 +10°C° 0 mm 1 mps 746 mmHg 98%
    05:00 +9°C° 0 mm 2 mps 746 mmHg 98%
    06:00 +12°C° 0 mm 2 mps 746 mmHg 93%
    07:00 +13°C° 0 mm 2 mps 746 mmHg 89%
    08:00 +15°C° 0 mm 2 mps 747 mmHg 84%
    09:00 +16°C° 0 mm 1 mps 747 mmHg 79%
    10:00 +18°C° 0 mm 1 mps 747 mmHg 74%
    11:00 +19°C° 0 mm 1 mps 747 mmHg 69%
    12:00 +20°C° 0 mm 1 mps 747 mmHg 66%
    13:00 +21°C° 0 mm 1 mps 746 mmHg 62%
    14:00 +22°C° 0 mm 1 mps 746 mmHg 58%
    15:00 +21°C° 0.1 mm 1 mps 746 mmHg 60%
    16:00 +21°C° 0.1 mm 1 mps 746 mmHg 61%
    17:00 +21°C° 0.1 mm 1 mps 746 mmHg 63%
    18:00 +20°C° 0 mm 1 mps 746 mmHg 70%
    19:00 +18°C° 0 mm 1 mps 746 mmHg 77%
    20:00 +16°C° 0 mm 2 mps 746 mmHg 85%
    21:00 +15°C° 0 mm 2 mps 746 mmHg 88%
    22:00 +14°C° 0 mm 2 mps 746 mmHg 91%
    23:00 +13°C° 0 mm 2 mps 746 mmHg 94%
    Show more